FENGYUN 1C DEB, 30174

Orbit data source: Space-Track

FENGYUN 1C DEB, 30174 is space debris in SSO originally from a launch on Mon, 10 May 1999 UTC launched from the Taiyaun Space Center, China (TSC). Fengyun 1C debris stems from the Chinese weather satellite Fengyun-1C, which was intentionally destroyed by a Chinese anti-satellite missile in 2007. This event dramatically increased the amount of space debris, with thousands of trackable fragments posing hazards to satellites and human spaceflight. The Fengyun 1C debris cloud has become a focal point in discussions about space sustainability and the need for international regulations to prevent the creation of new debris.

Loading next visibility...
Identifier
30174, 1999-025UF
Orbit
SSO
Country
Flag of CNCN / PRC
Related business
Manufacturer
Unknown
Mission
Spacecraft
Bus & Motor
Unknown
Mass
Unknown
Launch date (UTC)
1999-05-10 (27 years ago)
Launch vehicle
Unknown
Launch site
Taiyaun Space Center, China (TSC)
Object type
Payload
Rocket body
Debris
Shape & HBR
Unknown shape, 0.1 m
Radar Cross Section
Medium (>0.1 m² and <1 m²)

Expand to show TLE details & history
Last TLE update: 14 hours ago

TLE from 14 hours ago
0 FENGYUN 1C DEB
1 30174U 99025UF  26254.99324185  .00044019  00000-0  29606-2 0  9993
2 30174  98.7760  80.7461 0011977 248.3337 270.9342 15.06535942 24480
Epoch: 2026-09-11T23:50Z
TLE epoch observation values (Epoch: 2026-09-11T23:50:16.095Z)
Latitude
20.62135°
Longitude
-84.5175°
Altitude
549.323 km
Speed
7.589 km/s
True Right ascension
17h 36m 13s
True Declination
20° 30' 17"
Sunlit
Object was in daylight at epoch
Visualization orbit readout
Latitude
Unknown
Longitude
Unknown
Altitude
Unknown
Speed
Unknown
Apparent Right ascension
Unknown
Apparent Declination
Unknown
Sunlit
N/A
Visualization observer readout
Local Sidereal Time
06:41:36
Azimuth
Unknown
Elevation
Unknown
Doppler factor
Unknown
Orbital elements
Apogee altitude
552.133 km
Perigee altitude
535.552 km
Semi-major axis
6,921.979 km
Eccentricity
0.0012
Inclination
98.776°
RAAN
80.7461°
Arg. of periapsis
248.3337°
True anomaly
270.79697°
Mean anomaly
270.9342°
Eccentric anomaly
270.86558°
Mean motion
3.76875 °/min
Orbital period
95.52 mins
BSTAR
0.0029606
Loading maneuver chart data...
Computing Atmospheric mass density...
Loading historical data...
Loading historical data...
Loading historical data...
Loading historical data...
Loading historical data...
Loading historical data...
Loading historical data...

Documentation

Showing up to 5 results
|